200 serials | driver manager 15.0.0.591 registration key

Date Name Success Rate
2009-10-22 23:48:17 Internet Download Manager Registration 50%
2011-09-08 10:42:09 DAS Registration 1.5.2 66%
2011-09-08 10:42:09 DAS Registration For CW5 0%
2011-09-08 10:42:09 DAS Registration v1.5.2 0%
2009-10-17 06:27:02 Lazarus Registration DLL V1.0 59%
2009-10-22 23:48:48 MemoriesonTV Registration 0%
2009-10-22 23:49:42 Registration Wizard 40%
2011-09-08 10:06:47 AnetHelpTool v4.02 Registration 52%
2011-09-08 10:22:13 ByeLines Registration 60%
2011-09-08 10:57:42 Ftgate Registration 63%
2011-09-08 11:15:16 Infodex v2.10 Registration 0%
2011-09-08 11:25:08 Lazarus Registration DLL v1.0 0%
2011-09-08 11:27:46 Mac Opener v3.0 Registration 57%
2011-09-08 11:32:59 mIRC v4.5+ Registration 60%
2011-09-08 11:32:59 mIRC v4.52 Registration 60%
2011-09-08 12:37:02 Quant v2.0 Registration 0%
2011-09-08 12:41:14 Registration Suite 1.0 60%
2011-09-08 12:41:14 Registration Suite v1.0 60%
2011-09-08 12:41:14 Registration Wizard Pro 5.01 46%
2011-09-08 12:41:14 Registration Wizard Pro v5.01 60%
2011-09-08 13:18:59 WinHacker 95 v2.02 Registration 57%
2012-12-13 05:12:00 Registration Key : 526EFEF086E09600449E667EA2DAE8E2E6D642BC 83%
2009-10-22 23:27:21 Ardamax Keylogger 2.9 Registration 56%
2009-10-22 23:48:49 Microsoft Registration Hacker - 39%
2009-10-22 23:49:57 SoudForge ALL (No Registration Requiered) 0%
2009-10-22 23:50:26 Valve's Registration Armor Key-Gen 60%
2011-09-08 10:21:42 Browserola v1.01 Temp. Registration 0%
2011-09-08 10:56:11 FontLook v3.1 Registration Code 51%
2011-09-08 11:31:51 Microsoft Registration Hacker 0%
2011-09-08 11:31:51 Microsoft Registration Hacker - 0%
2011-09-08 11:31:51 Microsoft Registration HackerMSREGHACK 0%
2011-09-08 11:32:07 Microstation v5.xx.xx & 95 FULL REGISTRATION 48%
2011-09-08 11:42:43 Nic O'Matic 1.6 Registration Code 50%
2011-09-08 11:42:43 Nic O'Matic v1.6 Registration Code 55%
2011-09-08 12:34:57 PolyTrans V1.2E Registration Activator CD-Key 62%
2011-09-08 12:34:57 PolyView v2.9b16 Registration 0%
2011-09-08 12:54:09 Time Registration (German) 1.10 0%
2011-09-08 12:59:30 Super Collapse Registration 100%
2011-09-08 13:23:15 Yipe! II for Windows Registration #154 0%
2012-12-13 08:49:53 Softwarenetz Time Registration v1.10 0%
2012-12-13 08:49:56 Softwarenetz Time Registration v1.14 0%
2012-12-13 15:34:10 Valve's Registration Armor Key-Gen 0%
2011-09-08 10:25:56 Cheyenne Bitware V4.0 Registration Number 60%
2011-09-08 11:31:51 Microsoft Registration Hacker MSREGHACK 80%
2011-09-08 11:31:51 Microsoft Visual Basic 5 registration cd key 72%
2011-09-08 12:54:14 TimeSlips 10.5 enterprise - with registration code! 0%
2012-12-12 08:07:32 Download avast 5.0.667 Antivirus registration 0%
2012-12-13 05:12:00 Registration Code For PDFZilla Giveaway 0%
2012-12-13 05:12:00 Registration key for x-3gp-video-converter-38540 54%
2012-12-13 13:12:40 Total Image Converter Registration Key 57%
2011-09-08 11:30:16 MediaBlaze 98 v1.01 Win95/NT User: delphic Registration 0%
2012-12-13 05:12:00 Registration code:-826510-16101-266644 51%
2009-10-22 23:49:02 Norton Internet Security 2005 Registration Guide 0%
2011-09-08 09:58:40 Acoustica Mixcraft v1.10 Build 15 Registration Info by MaBi 60%
2012-12-12 19:40:26 Microsoft Visual Basic 2008 Express Edition Registration key 55%
2011-09-08 10:44:59 Driver Guide Driver Guide Tool Kit 2.0.23 25%
2009-10-22 23:44:51 Bus Driver 55%
2009-10-22 23:46:28 Driver Max 66%
2011-09-08 10:24:26 CD Driver 1.20 59%
2011-09-08 10:24:26 CD Driver v1.20 54%
2011-09-08 13:17:23 Win Driver 7 0%
2009-10-17 06:21:40 Driver Cleaner NET V3.2.0.0-SUN 15%
2009-10-17 06:21:40 Driver Genius Pro V7.1.622 54%
2009-10-17 06:21:40 Driver Genius Pro V8.0 70%
2009-10-17 06:21:40 Driver Magician V2.8 79%
2009-10-22 23:27:23 Art Print Driver 1.2 0%
2009-10-22 23:27:27 AVer TV GO 1.20 Driver 66%
2009-10-22 23:46:28 Driver Checker 2.x 0%
2009-10-22 23:46:28 Driver Checker V2.7.2 71%
2009-10-22 23:46:28 Driver Checker V2.7.3 50%
2009-10-22 23:46:28 Driver Detective 45%
2009-10-22 23:46:28 Driver Detective 40%
2009-10-22 23:46:28 Driver Detective 45%
2009-10-22 23:46:28 Driver Detective 58%
2009-10-22 23:46:28 Driver Detective 6 70%
2009-10-22 23:46:28 Driver Detective 6.2.5.0 71%
2009-10-22 23:46:28 Driver Detective 6.3.1.0 71%
2009-10-22 23:46:28 Driver Detective 6.3.1.2 68%
2009-10-22 23:46:28 Driver Detective 6.3.5.1 62%
2009-10-22 23:46:28 Driver DETECTIVE 6.4.0. 56%
2009-10-22 23:46:28 Driver Detective 6.4.0.7 40%
2009-10-22 23:46:28 Driver Detective 6.4.1.2 84%
2009-10-22 23:46:28 Driver DETECTIVE 6.4.1.5 64%
2009-10-22 23:46:28 Driver Detective 6.4.1.5 65%
2009-10-22 23:46:28 Driver Detective V6.2.5.0 61%
2009-10-22 23:46:28 Driver Detectve 6.41 80%
2009-10-22 23:46:28 Driver Extractor 1.0 0%
2009-10-22 23:46:28 Driver Extractor V1.0 0%
2009-10-22 23:46:28 Driver For Genius Web Cam V4 54%
2009-10-22 23:46:28 Driver Genius 83%
2009-10-22 23:46:28 Driver Genius 5 0%
2009-10-22 23:46:28 Driver Genius 6 0%
2009-10-22 23:46:28 Driver Genius 9 Pro 84%
2009-10-22 23:46:28 Driver Genius Pro 0%
2009-10-22 23:46:28 Driver Genius Pro 1.50 56%
2009-10-22 23:46:28 Driver Genius Pro 1.7 9%
2009-10-22 23:46:28 Driver Genius Pro 2 0%
2009-10-22 23:46:28 Driver Genius Pro 9.0.0.178 60%
2009-10-22 23:46:28 Driver Genius Pro V8.0 56%
2009-10-22 23:46:28 Driver Genius Pro Ver 7 0%
2009-10-22 23:46:28 Driver Genius Pro.7z 63%
2009-10-22 23:46:28 Driver Genius V.5.0 0%
2009-10-22 23:46:28 Driver Magic 2.0 56%
2009-10-22 23:46:28 Driver Magician 1.41 0%
2009-10-22 23:46:28 Driver Magician 3.27 0%
2009-10-22 23:46:28 Driver Magician 3.32 54%
2009-10-22 23:46:28 Driver Magician 3.42 63%
2009-10-22 23:46:28 Driver Magician V3.26 57%
2009-10-22 23:46:28 Driver Magician V3.27 61%
2009-10-22 23:46:28 Driver Magician V3.41 61%
2009-10-22 23:46:28 Driver Magician V3.45 80%
2009-10-22 23:46:28 Driver Robot 62%
2009-10-22 23:46:28 Driver Robot 66%
2009-10-22 23:46:28 Driver Robot 1.0 100%
2009-10-22 23:46:28 Driver Updater Pro 2.2.8.0 73%
2009-10-22 23:46:29 DTM Race Driver 2 65%
2009-10-22 23:48:01 GT Driver From BoontyGames 0%
2009-10-22 23:49:41 Race Driver 2 0%
2009-10-22 23:50:27 Virtual Driver 9.0 59%
2011-09-08 10:08:39 Art Print Driver 1.2 0%
2011-09-08 10:08:39 Art Print Driver v1.2 0%
2011-09-08 10:19:24 Best Crypt NP Driver 4.11 0%
2011-09-08 10:19:24 Best Crypt NP Driver v4.11 0%
2011-09-08 10:19:32 BestCrypt NP driver v4.11 v3.0 0%
2011-09-08 10:19:32 BestCrypt NP v4.11 v3.0 driver 0%
2011-09-08 10:44:57 Driver Cleaner.NET 3.2.2.0 0%
2011-09-08 10:44:57 Driver Detective 6.2.5.0 63%
2011-09-08 10:44:57 Driver Detective 6.4.1.2 58%
2011-09-08 10:44:57 Driver Extractor 1.0 0%
2011-09-08 10:44:59 Driver Genius Pro 1.50 0%
2011-09-08 10:44:59 Driver Genius Pro 1.7 0%
2011-09-08 10:44:59 Driver Genius Pro v1.50 by iPA 0%
2011-09-08 10:44:59 Driver Genius Pro v1.7 0%
2011-09-08 10:44:59 Driver Genius Pro v1.7 by iPA 0%
2011-09-08 10:44:59 Driver Genius Pro v2.0 87%
2011-09-08 10:44:59 Driver Genius Pro v2.1 0%
2011-09-08 10:44:59 Driver Magician 1.41 0%
2011-09-08 10:44:59 Driver Magician 2.8 0%
2011-09-08 10:44:59 Driver Magician 3.35 0%
2011-09-08 10:44:59 Driver Magician 3.4 0%
2011-09-08 10:44:59 Driver Magician v1.41 0%
2011-09-08 10:44:59 Driver Robot 1.0 0%
2011-09-08 10:44:59 Driver Studio 1.0 0%
2011-09-08 10:44:59 Driver Studio 1.5 0%
2011-09-08 10:44:59 Driver Studio 2.0 0%
2011-09-08 10:44:59 Driver Studio 2.0.1 0%
2011-09-08 10:44:59 Driver Studio 2.5 0%
2011-09-08 10:44:59 Driver Studio v1.0 0%
2011-09-08 10:44:59 Driver Studio v1.5 0%
2011-09-08 10:44:59 Driver Studio v1.5 RC 1 0%
2011-09-08 10:44:59 Driver Studio v2.0 0%
2011-09-08 10:44:59 Driver Studio v2.0.1 0%
2011-09-08 10:44:59 Driver Studio v2.5 0%
2011-09-08 10:44:59 Driver Studio v2.6 60%
2011-09-08 10:45:11 DTM Race Driver 2 0%
2011-09-08 10:45:11 DTM Race Driver 2 v1.0 0%
2011-09-08 10:46:36 e-Border Driver 3.0 0%
2011-09-08 10:46:36 e-Border Driver v3.0 0%
2011-09-08 12:40:07 Race Driver 2 0%
2011-09-08 12:49:45 SoftICE Driver v2.7 0%
2012-12-12 04:52:56 Bus Driver Gold 40%
2012-12-12 08:14:12 Driver boost 76%
2012-12-12 08:14:14 Driver Checker 0%
2012-12-12 08:14:16 Driver Checker 2.7.5 80%
2012-12-12 08:14:18 Driver Checker 2.7.3 54%
2012-12-12 08:14:21 Driver Checker 2.7.4 0%
2012-12-12 08:14:25 Driver Checker 2.7.5 29%
2012-12-12 08:14:37 Driver Checker v2.7.4 0%
2012-12-12 08:14:43 Driver cheker 2.7.4 0%
2012-12-12 08:14:43 Driver Cleaner.NET 3.4 0%
2012-12-12 08:14:44 Driver dectective 94%
2012-12-12 08:14:44 Driver dective 53%
2012-12-12 08:14:44 Driver dedective 7.0.0.5 0%
2012-12-12 08:14:46 Driver detective 6.4.0 60%
2012-12-12 08:14:46 Driver Detective 6.4.1.3 66%
2012-12-12 08:14:47 Driver detective 6.5..0.11 90%
2012-12-12 08:14:47 Driver Detective 6.5.0.11 0%
2012-12-12 08:14:47 Driver Detective 6.5.0.14 55%
2012-12-12 08:14:47 Driver detective 6.6.0.16 49%
2012-12-12 08:14:48 Driver detective 7.001.24 53%
2012-12-12 08:14:50 Driver detective.6.4.1.6 0%
2012-12-12 08:14:52 Driver Detective: 7.1.0.16 40%
2012-12-12 08:14:56 Driver drtective v6.4.3.7 0%
2012-12-12 08:14:59 Driver easy 58%
2012-12-12 08:15:02 Driver feth 48%
2012-12-12 08:15:05 Driver finder 2.1.0.0 55%
2012-12-12 08:15:15 Driver Genius 10 0%
2012-12-12 08:15:18 Driver Genius 10.0.0.526 0%
2012-12-12 08:15:56 Driver Genius 9.0.0.176 0%
2012-12-12 08:16:00 Driver GENIUS PE 10 0%
2012-12-12 08:16:04 Driver Genius Pro 10.0.0.526 18%
2012-12-12 08:16:06 Driver Genius PRO 10.0.0.761 0%
2012-12-12 08:16:08 Driver Genius Pro 10.0.0.820 71%
2012-12-12 08:16:21 Driver genius pro 9 0%
2012-12-12 08:16:34 Driver Genius Pro v9.0.0.178 0%
2012-12-12 08:18:18 Driver magician 3.45 11%
2012-12-12 08:18:20 Driver MAGICIAN 3.49 30%
2012-12-12 08:18:22 Driver magician 3.55 0%
2012-12-12 08:18:25 Driver Magician 3.61 70%
2012-12-12 08:18:26 Driver Magician 3.65 0%